Skip Page Navigation
NASA JPL Caltech
NASA Logo - Jet Propulsion Laboratory + View the NASA Portal
+ Center for Near-Earth Object Studies
JPL Home Earth Solar System Stars & Galaxies Technology
JPL Solar System Dynamics
BODIES ORBITS EPHEMERIDES TOOLS PHYSICAL DATA DISCOVERY FAQ SITE MAP
IMPORTANT: The SSD Announcement email list is now available. Major changes are coming in the near future, including possible hostname and/or URL changes. To be notified of such changes, subscribe to this email list.

Please visit this page for more details.


JPL Small-Body Database Browser
Search: [ help ]  
214355 (2005 JY180)
Classification: Main-belt Asteroid          SPK-ID: 2214355
Ephemeris | Orbit Diagram | Orbital Elements | Mission Design | Physical Parameters | Discovery Circumstances | Close-Approach Data ]

[ show orbit diagram ]
Orbital Elements at Epoch 2458600.5 (2019-Apr-27.0) TDB
Reference: JPL 14 (heliocentric ecliptic J2000)
 Element Value Uncertainty (1-sigma)   Units 
e .07680946152782826 6.1455e-08  
a 2.596294025447015 2.8115e-08 au
q 2.396874079384512 1.7553e-07 au
i 8.140672019930202 7.2838e-06 deg
node 179.22408465 3.3792e-05 deg
peri 326.6315439690844 5.5548e-05 deg
M 203.6561705858244 4.3839e-05 deg
tp 2459264.101688192566
(2021-Feb-18.60168819)
0.00018623 TDB
period 1528.02070055771
4.18
2.4821e-05
6.796e-08
d
yr
n .2355989024681433 3.827e-09 deg/d
Q 2.795713971509517 3.0275e-08 au
  Orbit Determination Parameters
   # obs. used (total)      202  
   data-arc span      7711 days (21.11 yr)  
   first obs. used      1998-09-18  
   last obs. used      2019-10-29  
   planetary ephem.      DE431  
   SB-pert. ephem.      SB431-N16  
   condition code      0  
   norm. resid. RMS      .57492  
   source      ORB  
   producer      Otto Matic  
   solution date      2019-Nov-07 23:54:08  

Additional Information
 Earth MOID = 1.41255 au 
 Jupiter MOID = 2.20329 au 
 T_jup = 3.399 
[ show covariance matrix ]

Ephemeris | Orbit Diagram | Orbital Elements | Mission Design | Physical Parameters | Discovery Circumstances | Close-Approach Data ]

Physical Parameter Table
Parameter Symbol Value Units Sigma Reference Notes
absolute magnitude H 16.9   n/a MPO401683  

214355 (2005 JY180)          Discovered 2005-May-04 by Spacewatch at Kitt Peak
Reference: 20090509/Numbers.arcLast Updated: 2009-05-11

[ show close-approach data ]
Ephemeris | Orbit Diagram | Orbital Elements | Mission Design | Physical Parameters | Discovery Circumstances | Close-Approach Data ]
ABOUT SSD CREDITS/AWARDS PRIVACY/COPYRIGHT GLOSSARY LINKS
FirstGov 2019-Dec-10 06:33 UT
(server date/time)  
NASA Home Page
Site Manager:   Ryan S. Park
Webmaster  Alan B. Chamberlin